Northolt, United Kingdom

11:27 AM GMT on February 24, 2017 (GMT +0000)
Northolt Air Base

Weather History for EGWU - May, 2013

Change the Weather History Date:

Wednesday, May 8, 2013

  Actual Average Record
Temperature  
Mean Temperature 57 °F -  
Max Temperature 64 °F 63 °F 80 °F (2016)
Min Temperature 48 °F 48 °F 41 °F (1997)
Degree Days  
Heating Degree Days 8    
Growing Degree Days 7 (Base 50)    
Moisture  
Dew Point 49 °F    
Average Humidity 75    
Maximum Humidity 88    
Minimum Humidity 56    
Precipitation  
Precipitation 0.00 in - - ()
Sea Level Pressure  
Sea Level Pressure 29.73 in    
Wind  
Wind Speed 8 mph ()    
Max Wind Speed 18 mph    
Max Gust Speed -    
Visibility 6.2 miles    
Events Rain    
Averages and records for this station are not official NWS values.
T = Trace of Precipitation, MM = Missing Value Source: Averaged Metar Reports

Daily Weather History Graph

Daily Weather History Graph

Search for Another Location

Airport or City:

Trip Planner

Search our weather history database for the weather conditions in past years. The results will help you decide how hot, cold, wet, or windy it might be!

Date:

Astronomy

May. 08, 2013 Rise Set
Actual Time 5:20 AM BST 8:36 PM BST
Civil Twilight 4:40 AM BST 9:16 PM BST
Nautical Twilight 3:48 AM BST 10:10 PM BST
Astronomical Twilight 2:37 AM BST 11:22 PM BST
Moon 4:31 AM BST (5/8) 7:13 PM BST (5/8)
Length of Visible Light 16h 35m
Length of Day
15h 15m
Waning Crescent, 2% of the Moon is Illuminated
May 8
Waning Crescent
May 10
New
May 18
First Quarter
May 25
Full
May 31
Last Quarter

Hourly Weather History & Observations

Time (BST) Temp. Dew Point Humidity Pressure Visibility Wind Dir Wind Speed Gust Speed Precip Events Conditions
12:50 AM 56 °F 46 °F 59% 29.85 in 7 mi East 5.8 mph - -   Mostly Cloudy
12:50 AM 55.4 °F 46.4 °F 72% 29.83 in 6.2 mi East 5.8 mph - N/A   Mostly Cloudy
1:50 AM 53.6 °F 46.4 °F 77% 29.83 in 6.2 mi East 3.5 mph - N/A   Overcast
2:50 AM 55.4 °F 46.4 °F 72% 29.77 in 5.0 mi East 6.9 mph - N/A   Overcast
3:50 AM 55 °F 46 °F 64% 29.76 in 5 mi East 6.9 mph - -   Mostly Cloudy
3:50 AM 55.4 °F 46.4 °F 72% 29.74 in 5.0 mi East 6.9 mph - N/A   Mostly Cloudy
4:50 AM 53.6 °F 50.0 °F 88% 29.74 in 3.7 mi ESE 3.5 mph - N/A   Mostly Cloudy
5:50 AM 55.4 °F 50.0 °F 82% 29.74 in 3.1 mi SSE 4.6 mph - N/A   Mostly Cloudy
6:50 AM 54 °F 51 °F 84% 29.73 in 4 mi SSE 4.6 mph - -   Overcast
6:50 AM 53.6 °F 50.0 °F 88% 29.71 in 3.7 mi SSE 4.6 mph - N/A Rain Light Rain
7:50 AM 55.4 °F 51.8 °F 88% 29.71 in 4.3 mi South 8.1 mph - N/A   Haze
8:50 AM 57.2 °F 53.6 °F 88% 29.68 in 2.5 mi South 9.2 mph - N/A   Light Drizzle
9:50 AM 58 °F 53 °F 76% 29.70 in 12 mi SW 12.7 mph - - Rain Light Drizzle
9:50 AM 59.0 °F 51.8 °F 77% 29.68 in 6.2 mi SW 12.7 mph - N/A   Mostly Cloudy
10:50 AM 59.0 °F 50.0 °F 72% 29.68 in 6.2 mi SW 15.0 mph - N/A   Mostly Cloudy
11:50 AM 59.0 °F 48.2 °F 67% 29.71 in 6.2 mi WSW 12.7 mph - N/A   Mostly Cloudy
12:50 PM 58 °F 48 °F 61% 29.71 in 19 mi SW 11.5 mph - -   Partly Cloudy
12:50 PM 59.0 °F 48.2 °F 67% 29.71 in 6.2 mi SW 11.5 mph - N/A   Mostly Cloudy
1:50 PM 59.0 °F 48.2 °F 67% 29.71 in 6.2 mi WSW 16.1 mph - N/A   Mostly Cloudy
2:50 PM 60.8 °F 48.2 °F 63% 29.68 in 6.2 mi SW 15.0 mph - N/A   Scattered Clouds
3:50 PM 65 °F 53 °F 56% 29.70 in 25 mi WSW 17.3 mph - -   Partly Cloudy
3:50 PM 64.4 °F 53.6 °F 68% 29.68 in 6.2 mi WSW 17.3 mph - N/A   Scattered Clouds
4:50 PM 60.8 °F 57.2 °F 88% 29.68 in 6.2 mi WSW 16.1 mph - N/A   Scattered Clouds
5:50 PM 59.0 °F 55.4 °F 88% 29.68 in 6.2 mi SW 15.0 mph - N/A   Mostly Cloudy
6:50 PM 58 °F 54 °F 81% 29.71 in 25 mi SW 13.8 mph - -   Mostly Cloudy
6:50 PM 59.0 °F 53.6 °F 82% 29.71 in 6.2 mi SW 13.8 mph - N/A   Mostly Cloudy
7:50 PM 57.2 °F 51.8 °F 82% 29.71 in 6.2 mi SW 12.7 mph - N/A   Overcast
8:50 PM 53.6 °F 42.8 °F 67% 29.74 in 6.2 mi WNW 18.4 mph - N/A   Mostly Cloudy
9:50 PM 53 °F 44 °F 62% 29.79 in 25 mi West 11.5 mph - -   Partly Cloudy
9:50 PM 51.8 °F 44.6 °F 76% 29.77 in 6.2 mi West 11.5 mph - N/A   Scattered Clouds
10:50 PM 50.0 °F 42.8 °F 76% 29.80 in - WNW 12.7 mph - N/A   Clear
11:50 PM 48.2 °F 41.0 °F 76% 29.80 in - WNW 6.9 mph - N/A   Clear